DELTA 1 DEB, 7150

Orbit data source: Space-Track

DELTA 1 DEB, 7150 is space debris in SSO originally from a launch on Tue, 06 Nov 1973 UTC launched from the Air Force Western Test Range (AFWTR). Debris objects in space refer to the collection of defunct objects orbiting the Earth. Examples of debris include non-operational satellites, rocket bodies, and fragments generated from explosions, collisions, or faulty payload assembly.

Loading next visibility...
Identifier
7150, 1973-086DQ
Orbit
SSO
Country
Flag of USUS
Related business
Manufacturer
Unknown
Mission
Spacecraft
Bus & Motor
Unknown
Mass
Unknown
Launch date (UTC)
1973-11-06 (53 years ago)
Launch vehicle
Unknown
Launch site
Air Force Western Test Range (AFWTR)
Object type
Payload
Rocket body
Debris
Shape & HBR
Unknown shape, 0.2 m
Radar Cross Section
Medium (>0.1 m² and <1 m²)

Expand to show TLE details & history
Last TLE update: 13 hours ago

TLE from 13 hours ago
0 DELTA 1 DEB
1  7150U 73086DQ  26263.17758133  .00000528  00000-0  49385-2 0  9997
2  7150 101.8908 223.8471 0131118  89.1900  28.2710 12.26410075358757
Epoch: 2026-09-20T04:15Z
TLE epoch observation values (Epoch: 2026-09-20T04:15:43.026Z)
Latitude
59.6936°
Longitude
1.84903°
Altitude
1,483.256 km
Speed
7.168 km/s
True Right ascension
04h 19m 24s
True Declination
59° 33' 27"
Sunlit
Object was in daylight at epoch
Visualization orbit readout
Latitude
Unknown
Longitude
Unknown
Altitude
Unknown
Speed
Unknown
Apparent Right ascension
Unknown
Apparent Declination
Unknown
Sunlit
N/A
Visualization observer readout
Local Sidereal Time
09:46:06
Azimuth
Unknown
Elevation
Unknown
Doppler factor
Unknown
Orbital elements
Apogee altitude
1,666.443 km
Perigee altitude
1,458.215 km
Semi-major axis
7,940.466 km
Eccentricity
0.01311
Inclination
101.8908°
RAAN
223.8471°
Arg. of periapsis
89.19°
True anomaly
28.99305°
Mean anomaly
28.271°
Eccentric anomaly
28.63097°
Mean motion
3.06743 °/min
Orbital period
117.36 mins
BSTAR
0.0049385
Loading maneuver chart data...
Computing Atmospheric mass density...
Loading historical data...
Loading historical data...
Loading historical data...
Loading historical data...
Loading historical data...
Loading historical data...
Loading historical data...

Documentation

Showing up to 5 results
|